sat.trackr.live / text

‹ back to catalog

STARLINK-37079

NORAD 68186 · 2026-050V

PAYLOAD ACTIVE UNKNOWN

§ Identity

Operator
Country
US
Launch date
2026-03-14
Launch site
AFETR
Launch vehicle
Mass (kg)
RCS (m²)

Purposes: comms

External: N2YO · Heavens-Above · Gunter

§ Orbital elements

Epoch: 2026-05-25T01:02:54.784896Z

Period
93.78 min
Inclination
53.1555°
Eccentricity
0.0000700
Mean motion
15.35431760 rev/d
Perigee alt
459.2 km
Apogee alt
460.1 km
Semi-major
6,837.8 km
B*
1.0797e-3
RAAN
271.3716°
Arg perigee
77.7856°
Mean anomaly
282.3226°
Rev number
1,238

§ Raw data

STARLINK-370791 68186U 26050V   26145.04368964  .00037507  00000+0  10797-2 0  99972 68186  53.1555 271.3716 0000700  77.7856 282.3226 15.35431760 12383

JSON: /api/v1/satellites/68186 · /tle

For live sub-satellite position, see the globe view (requires WebGL).

§ Visibility from observer

Set your observer location to see the next 7 days of passes ≥ 10°. The values pass through the URL so the page stays shareable.

No JS? Fill the form by hand. The geolocation button needs JavaScript.